Regional Weather Roundup
Issued by NWS

Home | Current Version | Previous Version | Text Only | Print | Product List | Glossary On
Versions: 1 2 3 4 5 6 7 8 9 10 11 12 13 14 15 16 17 18 19 20 21 22 23 24 25 26 27 28 29 30 31 32 33 34 35 36 37 38 39 40 41 42 43 44 45 46 47 48 49 50
000
ASHW40 PHFO 230230
RWRHI

WEATHER ROUNDUP FOR HAWAII
NATIONAL WEATHER SERVICE HONOLULU HI
400 PM HST FRI AUG 22 2014

THIS IS AN AUTOMATED REPORT THAT HAS NOT BEEN QUALITY CONTROLLED.

NOTE..."FAIR" INDICATES FEW OR NO CLOUDS BELOW 12,000 FEET WITH NO
SIGNIFICANT WEATHER AND/OR OBSTRUCTIONS TO VISIBILITY.

* - THESE SITES REPORT LIMITED FIELDS

HIZ001>004-230300-
KAUAI-NIIHAU-

CITY           SKY/WX    TMP DP  RH WIND       PRES   REMARKS
LIHUE APT      PTSUNNY   81  70  69 NE18      29.99F
PORT ALLEN*      N/A     86 N/A N/A E21G26      N/A
POIPU*           N/A     82 N/A N/A NE10G20     N/A
PRINCEVILLE*   NOT AVBL
KOKOLE POINT*  NOT AVBL
MOLOAA DAIRY*  NOT AVBL
WAIMEA HTS*    NOT AVBL
PUU OPAE*      NOT AVBL
PUU LUA*       NOT AVBL
MAKAHA RIDGE*    N/A     82  68  61 CALM        N/A
$$

HIZ005>011-230300-
OAHU-

CITY           SKY/WX    TMP DP  RH WIND       PRES   REMARKS
HONOLULU       PTSUNNY   85  66  53 NE10      29.95F
KALAELOA       SUNNY     86  66  51 VRB7      29.95F
KANEOHE MCB    CLOUDY    81  72  75 NE13G20   29.97F
WHEELER FIELD  CLOUDY    80  66  62 NE13G20   29.98F
BELLOWS*         N/A    N/A N/A N/A NE20        N/A
KAHUKU*          N/A    N/A N/A N/A NE8G15      N/A
WHEELER*       NOT AVBL
WAIANAE HARBOR NOT AVBL
DILLINGHAM*      N/A     88  68  51 NE8G16      N/A  HX  91
KAHUKU TRN*      N/A     79  68  69 E12G21      N/A
KAWAILOA*      NOT AVBL
KII*             N/A     81  70  69 E15G21      N/A
MAKUA RANGE*     N/A     86  64  48 E16G26      N/A
OAHU FOREST NW NOT AVBL
SCHOFIELD BRK*   N/A     77  66  69 MISG        N/A
SCHOFIELD S*   NOT AVBL
WAIANAE VLY*   NOT AVBL
KUAOKALA*      NOT AVBL
HONOULIUULI*   NOT AVBL
MOKUOLOE IS*     N/A    N/A N/A N/A MISG        N/A
PALEHUA*       NOT AVBL
WAIAWA PHB*    NOT AVBL
$$

HIZ012>013-230300-
MOLOKAI-

CITY           SKY/WX    TMP DP  RH WIND       PRES   REMARKS
MOLOKAI AIRPT  MOSUNNY   82  70  66 NE18G26   29.97S
KALAUPAPA      NOT AVBL
MAKAPULAPAI*   NOT AVBL
MOLOKAI 1*     NOT AVBL
PUU ALII*        N/A     65  62  89 E3G12       N/A
$$

HIZ016-230300-
KAHOOLAWE-

CITY           SKY/WX    TMP DP  RH WIND       PRES   REMARKS
KAHOOLAWE*     NOT AVBL
HAKIOAWA*      NOT AVBL
HONOKANAIA*      N/A     87  68  52 N18G30    29.94F HX  90
KANELOA*         N/A     79  66  65 E16G26    30.04F
KEALIALALO*    NOT AVBL
LUA MAKIKA*    NOT AVBL
$$

HIZ014>015-230300-
LANAI-

CITY           SKY/WX    TMP DP  RH WIND       PRES   REMARKS
LANAI CITY     FAIR      82  66  58 NE29      29.99S
LANAI 1*       NOT AVBL
$$

HIZ017>028-230300-
MAUI-

CITY           SKY/WX    TMP DP  RH WIND       PRES   REMARKS
KAHULUI        MOSUNNY   86  69  56 NE21      29.96S HX  90
KAPALUA-W MAUI MOSUNNY   84  66  54 NE22G28   29.95F
HANA AIRPORT   CLOUDY    79  66  65 NE7       30.00S
HANA*            N/A     79 N/A N/A NE9G18      N/A
HALEAKALA SUMM   N/A     54  30  40 N7G20       N/A
MAALAEA BAY*   NOT AVBL
HALEAKALA*     NOT AVBL
KAUPO GAP*     NOT AVBL
KULA 1*          N/A     66  58  74 NW7G13      N/A
$$

HIZ023>026-230300-
BIG ISLAND OF HAWAII COAST AND LOWER SLOPES-

CITY           SKY/WX    TMP DP  RH WIND       PRES   REMARKS
KAILUA KONA    PTSUNNY   86  70  58 S13       29.88F HX  90
HILO           PTSUNNY   82  67  60 NW13      29.95S
HONOKAA*       NOT AVBL
KAWAIHAE MWT*    N/A     86 N/A N/A W13         N/A
KAWAIHAE*        N/A     84 N/A N/A W14         N/A
SOUTH POINT*     N/A     77 N/A N/A NE16G25     N/A
UPOLU AIRPORT*   N/A    N/A N/A N/A NE20G28     N/A
KAMUELA*       MOCLDY    73  61  64 N12G29    30.04S
HAKALAU*         N/A     62  54  73 N8G14       N/A
KALOKO-HONOKO*   N/A     86  68  54 S9        29.88F
PALI 2*          N/A     77  59  53 N21G35      N/A
KEALAKOMO*       N/A     84  64  51 NE18G29     N/A
KAUPULEHU*     NOT AVBL
KAPAPALA*        N/A     75  67  76 SW7G14      N/A
LOWER KAHUKU*  NOT AVBL
PUHE CS*       NOT AVBL
PUHO CS*         N/A     85  71  62 W5G12       N/A  HX  90
PTA KEAMUKU*     N/A     72  57  60 NE26G37     N/A
WAIKOLOA*      NOT AVBL
$$

HIZ027>028-230300-
BIG ISLAND OF HAWAII INTERIOR AND SUMMMITS-

CITY           SKY/WX    TMP DP  RH WIND       PRES   REMARKS
BRADSHAW FIELD SUNNY     66  53  61 SW9G18    30.27R
MK VISITOR CEN NOT AVBL
MAUNA KEA*       N/A     43  -4  14 E14         N/A
MAUNA LOA*       N/A     54  32  43 MISG        N/A
MAUNA LOA 1*     N/A     54  36  50 MISG        N/A
PTA KIPUKA*      N/A     72  52  49 NW7G17      N/A
PTA RANGE 17*    N/A     70  55  60 W18G26      N/A
PTA WEST*        N/A     72  57  60 N18G25      N/A
NENE CABIN*    NOT AVBL
AHUMOA*        NOT AVBL
PTA PORTABLE*  NOT AVBL
PUU MALI*      NOT AVBL
$$

HIC003-230300-
NORTHWEST ISLANDS-

CITY           SKY/WX    TMP DP  RH WIND       PRES   REMARKS
MIDWAY ISLAND  SUNNY     90  73  58 SW12      30.04S HX  98
MIDWAY NOS*    NOT AVBL
FRENCH FRIGATE NOT AVBL
$$

PHZ110>124-180-230300-
BUOY REPORTS

STATION/POSITION TIME  TEMP    WIND        PRES    WAVE   SWELL
                       AIR SEA DIR/SP/G            HT/PER HT/DIR
                 (UTC) (F)     (DEG/KT/KT) (MB)    (FT/S) (FT/D)
BUOY 51001       NOT AVBL
BUOY 51101       NOT AVBL
BUOY 51100       0200   78 79   40/ 16/ 17 1015.0F
BUOY 51003       0200   81 82   50/ 14/ 16 1013.4F   7/ 7   5
BUOY 51004       0150   79 80   40/ 16/ 19 1011.5F   7/ 8   3/180
BARBERS PT BUOY  NOT AVBL
WAIMEA BAY BUOY  0200      81                N/A     4/ 6   2/260
KAILUA BAY BUOY  0200      81                N/A     5/ 8   2/150
LANAI BUOY       NOT AVBL
BARBERS PT 2     0200      81                N/A     4/13   3/190
PAUWELA MAUI     0200      80                N/A     5/ 8
HILO             NOT AVBL
KANEOHE BAY BUOY 0200      80                N/A     5/ 6
HANALEI KAUAI    NOT AVBL
KAHULUI HARBOR   0200   80 81   30/ 13/ 20 1014.3F
HONOLULU HARBOR  0200   81      60/  9/ 14 1014.5F
KILO NALU        NOT AVBL
HILO HARBOR      0200   79     330/ 13/ 15 1013.7S
MOKUOLOE         0200      82   70/ 13/ 16 1015.1S
NAWILIWILI       0200      82                N/A
WHOTS BUOY       NOT AVBL
BUOY 51028       NOT AVBL
$$

......................KEY........................................
  SKY/WX - SKY CONDITIONS/PRESENT WEATHER
  TMP    - TEMPERATURE IN FAHRENHEIT
  DWPT   - DEWPOINT IN FAHRENHEIT
  RH     - RELATIVE HUMIDITY IN PERCENT
  WIND   - DIRECTION AND SPEED /MPH FOR ISLANDS...KTS FOR BUOYS/
  PRES   - MEAN SEA LEVEL PRESSURE IN INCHES OF HG
  VSB    - VISIBILITY IN MILES
  HX     - HEAT INDEX
  WCI    - WIND CHILL INDEX
  VRB    - VARIABLE WIND DIRECTION
  N/A    - NOT AVAILABLE



USA.gov is the U.S. government's official web portal to all federal, state and local government web resources and services.